TimeMDT,TemperatureF,Dew PointF,Humidity,Sea Level PressureIn,VisibilityMPH,Wind Direction,Wind SpeedMPH,Gust SpeedMPH,PrecipitationIn,Events,Conditions,WindDirDegrees,DateUTC
12:55 AM,52.0,29.5,42,29.92,10.0,South,12.7,-,N/A,,Clear,190,2012-10-02 06:55:00
1:55 AM,50.2,30.4,47,29.89,10.0,South,11.5,-,N/A,,Clear,170,2012-10-02 07:55:00
2:55 AM,48.6,30.4,50,29.85,10.0,SSW,8.1,-,N/A,,Clear,200,2012-10-02 08:55:00
3:55 AM,49.6,29.3,46,29.82,10.0,South,6.9,-,N/A,,Clear,180,2012-10-02 09:55:00
4:55 AM,50.2,28.6,43,29.81,10.0,SSW,5.8,-,N/A,,Clear,200,2012-10-02 10:55:00
5:55 AM,47.5,28.6,48,29.81,10.0,West,3.5,-,N/A,,Clear,260,2012-10-02 11:55:00
6:55 AM,46.6,28.4,49,29.80,10.0,Calm,Calm,-,N/A,,Clear,0,2012-10-02 12:55:00
7:55 AM,52.5,30.2,42,29.81,10.0,SW,4.6,-,N/A,,Clear,230,2012-10-02 13:55:00
8:55 AM,66.2,32.9,29,29.77,10.0,SW,4.6,-,N/A,,Clear,220,2012-10-02 14:55:00
9:55 AM,75.6,34.2,22,29.75,10.0,SW,6.9,-,N/A,,Clear,230,2012-10-02 15:55:00
10:55 AM,79.3,32.5,18,29.75,10.0,North,19.6,-,N/A,,Clear,350,2012-10-02 16:55:00
11:55 AM,80.4,31.1,17,29.73,10.0,North,20.7,27.6,N/A,,Clear,360,2012-10-02 17:55:00
12:55 PM,81.3,33.1,18,29.73,10.0,North,18.4,25.3,N/A,,Clear,10,2012-10-02 18:55:00
1:55 PM,82.2,33.8,17,29.72,10.0,NNE,3.5,18.4,N/A,,Clear,20,2012-10-02 19:55:00
2:55 PM,82.8,32.5,16,29.71,10.0,North,15.0,-,N/A,,Clear,360,2012-10-02 20:55:00
3:55 PM,82.4,30.9,15,29.70,10.0,NNE,6.9,-,N/A,,Clear,20,2012-10-02 21:55:00
4:55 PM,81.3,31.5,16,29.71,10.0,NNE,13.8,-,N/A,,Clear,20,2012-10-02 22:55:00
5:55 PM,78.4,31.3,18,29.73,10.0,North,10.4,-,N/A,,Clear,360,2012-10-02 23:55:00
6:55 PM,72.3,33.1,24,29.75,10.0,NE,11.5,-,N/A,,Clear,40,2012-10-03 00:55:00
7:55 PM,69.4,32.5,26,29.75,10.0,NE,9.2,-,N/A,,Clear,40,2012-10-03 01:55:00
8:55 PM,65.5,32.4,29,29.74,10.0,NNE,5.8,-,N/A,,Clear,20,2012-10-03 02:55:00
9:55 PM,58.3,31.6,36,29.74,9.0,Calm,Calm,-,N/A,,Clear,0,2012-10-03 03:55:00
10:55 PM,55.8,30.6,38,29.74,10.0,North,9.2,-,N/A,,Clear,350,2012-10-03 04:55:00
11:55 PM,60.8,33.1,35,29.71,10.0,North,4.6,-,N/A,,Clear,360,2012-10-03 05:55:00